Simultaneous Nadir Overpasses (SNOs) Predictions

Prediction of SNOs between METOP-B and TERRA Satellite Orbit:

Table of predicted SNOs for the next 14.0 days since TLE Epoch: 9/21/2018
Index Date (METOP-B) Time (METOP-B) Lat,Lon (METOP-B) SZA (METOP-B ) Date (TERRA) Time (TERRA) Lat,Lon (TERRA) SZA (TERRA ) Distance(km) Time Diff (sec)
1 09/22/2018 13:47:36 81.31, 20.24 84.09 09/22/2018 13:48:25 81.32, 20.34 84.13 1.78 49
2 09/22/2018 14:38:17 -81.31,-172.29 95.89 09/22/2018 14:37:52 -81.31,-172.15 95.89 2.39 25
3 09/25/2018 09:21:59 81.31, 86.53 85.19 09/25/2018 09:22:39 81.31, 86.69 85.23 2.76 40
4 09/25/2018 10:12:39 -81.32,-105.58 94.73 09/25/2018 10:12:06 -81.31,-105.77 94.78 3.23 33
5 09/28/2018 04:56:20 81.31, 153.21 86.34 09/28/2018 04:56:52 81.31, 153.04 86.33 2.89 32
6 09/28/2018 05:47:00 -81.32, -38.88 93.58 09/28/2018 05:46:18 -81.33, -39.01 93.61 2.30 42
7 10/01/2018 00:30:43 81.31,-140.52 87.44 10/01/2018 00:31:06 81.30,-140.63 87.43 2.15 23
8 10/01/2018 01:21:23 -81.32, 27.42 92.48 10/01/2018 01:20:32 -81.32, 27.35 92.51 1.18 51
9 10/03/2018 20:05:05 81.31, -73.85 88.58 10/03/2018 20:05:19 81.32, -73.92 88.58 1.27 14




NCC Satellite Simultaneous Nadir Overpasses (SNOs) Prediction Service
